Volver al catálogo

NEMO-HD

ActivoCienciaSSO
NORAD 46277·PAYLOAD·🇸🇮 Slovenia

Lanzado Sep 3, 2020 desde Guiana Space Centre

Loading…

Próximos Pases (próximas 24 horas)

TLE

ActualizadoSource: Space-Track

Época: Sep 14, 2026, 14:43 UTC

1 46277U 20061F   26257.61378622  .00008507  00000-0  17499-3 0  9995
2 46277  97.1822 318.7198 0002569  87.1263 273.0281 15.46198995335790

Sigue NEMO-HD en tiempo real con AllMySat

Download on the App Store